Time,TemperatureF,DewpointF,PressureIn,WindDirection,WindDirectionDegrees,WindSpeedMPH,WindSpeedGustMPH,Humidity,HourlyPrecipIn,Conditions,Clouds,dailyrainin,SoftwareType,DateUTC
2013-04-30 00:01:00,56.3,53.7,30.11,East,86,1.0,3.0,91,0.00,,OVC015,0.00,VWS V14.01,2013-04-30 04:01:00,
2013-04-30 00:06:00,56.3,53.7,30.11,ESE,114,0.0,3.0,91,0.00,,OVC015,0.00,VWS V14.01,2013-04-30 04:06:00,
2013-04-30 00:11:00,56.2,53.6,30.11,East,86,0.0,3.0,91,0.00,,OVC015,0.00,VWS V14.01,2013-04-30 04:11:00,
2013-04-30 00:16:00,56.1,53.5,30.11,SSW,198,0.0,3.0,91,0.00,,OVC015,0.00,VWS V14.01,2013-04-30 04:16:00,
2013-04-30 00:21:00,56.1,53.5,30.11,ENE,68,0.0,3.0,91,0.00,,OVC015,0.00,VWS V14.01,2013-04-30 04:21:00,
2013-04-30 00:26:00,56.2,53.6,30.11,SSW,212,1.0,7.0,91,0.00,,OVC015,0.00,VWS V14.01,2013-04-30 04:26:00,
2013-04-30 00:31:00,56.3,53.7,30.11,East,89,0.0,2.0,91,0.00,,OVC013,0.00,VWS V14.01,2013-04-30 04:31:00,
2013-04-30 00:36:00,56.3,53.7,30.11,East,82,0.0,2.0,91,0.00,,OVC013,0.00,VWS V14.01,2013-04-30 04:36:00,
2013-04-30 00:41:00,56.3,53.7,30.11,ESE,105,2.0,5.0,91,0.00,,OVC013,0.00,VWS V14.01,2013-04-30 04:41:00,
2013-04-30 00:46:00,56.4,53.5,30.11,East,79,1.0,5.0,90,0.00,,OVC013,0.00,VWS V14.01,2013-04-30 04:46:00,
2013-04-30 00:51:00,56.4,53.5,30.11,WSW,245,0.0,5.0,90,0.00,,OVC013,0.00,VWS V14.01,2013-04-30 04:51:00,
2013-04-30 00:56:00,56.3,53.7,30.11,East,95,0.0,5.0,91,0.00,,OVC013,0.00,VWS V14.01,2013-04-30 04:56:00,
2013-04-30 01:01:00,56.3,53.7,30.11,ESE,123,0.0,0.0,91,0.00,,OVC013,0.00,VWS V14.01,2013-04-30 05:01:00,
2013-04-30 01:06:00,56.2,53.6,30.11,WSW,250,0.0,2.0,91,0.00,,OVC013,0.00,VWS V14.01,2013-04-30 05:06:00,
2013-04-30 01:11:00,56.3,53.7,30.11,SW,229,1.0,3.0,91,0.00,,OVC013,0.00,VWS V14.01,2013-04-30 05:11:00,
2013-04-30 01:16:00,56.3,53.7,30.11,East,91,3.0,4.0,91,0.00,,OVC013,0.00,VWS V14.01,2013-04-30 05:16:00,
2013-04-30 01:21:00,56.4,53.5,30.11,ESE,115,0.0,7.0,90,0.00,,OVC013,0.00,VWS V14.01,2013-04-30 05:21:00,
2013-04-30 01:26:00,56.4,53.5,30.11,ESE,110,2.0,7.0,90,0.00,,OVC013,0.00,VWS V14.01,2013-04-30 05:26:00,
2013-04-30 01:31:00,56.4,53.5,30.11,East,82,0.0,1.0,90,0.00,,OVC013,0.00,VWS V14.01,2013-04-30 05:31:00,
2013-04-30 01:36:00,56.4,53.5,30.11,East,97,0.0,4.0,90,0.00,,OVC013,0.00,VWS V14.01,2013-04-30 05:36:00,
2013-04-30 01:41:00,56.4,53.5,30.11,East,96,0.0,4.0,90,0.00,,OVC013,0.00,VWS V14.01,2013-04-30 05:41:00,
2013-04-30 01:46:00,56.3,53.4,30.11,SW,236,0.0,4.0,90,0.00,,OVC013,0.00,VWS V14.01,2013-04-30 05:46:00,
2013-04-30 01:51:00,56.2,53.3,30.11,SW,229,1.0,4.0,90,0.00,,OVC013,0.00,VWS V14.01,2013-04-30 05:51:00,
2013-04-30 01:56:00,56.3,53.4,30.11,SW,229,1.0,4.0,90,0.00,,OVC013,0.00,VWS V14.01,2013-04-30 05:56:00,
2013-04-30 02:01:00,56.3,53.4,30.11,SW,219,0.0,0.0,90,0.00,,OVC013,0.00,VWS V14.01,2013-04-30 06:01:00,
2013-04-30 02:06:00,56.3,53.4,30.11,ESE,118,0.0,1.0,90,0.00,,OVC013,0.00,VWS V14.01,2013-04-30 06:06:00,
2013-04-30 02:11:00,56.3,53.4,30.11,East,79,0.0,2.0,90,0.00,,OVC013,0.00,VWS V14.01,2013-04-30 06:11:00,
2013-04-30 02:16:00,56.4,53.5,30.11,ENE,58,2.0,3.0,90,0.00,,OVC013,0.00,VWS V14.01,2013-04-30 06:16:00,
2013-04-30 02:21:00,56.4,53.5,30.11,SE,127,0.0,4.0,90,0.00,,OVC013,0.00,VWS V14.01,2013-04-30 06:21:00,
2013-04-30 02:26:00,56.4,53.2,30.11,SW,215,3.0,5.0,89,0.00,,OVC013,0.00,VWS V14.01,2013-04-30 06:26:00,
2013-04-30 02:31:00,56.5,53.3,30.11,SSW,208,1.0,2.0,89,0.00,,OVC015,0.00,VWS V14.01,2013-04-30 06:31:00,
2013-04-30 02:36:00,56.5,53.3,30.11,NE,35,0.0,2.0,89,0.00,,OVC015,0.00,VWS V14.01,2013-04-30 06:36:00,
2013-04-30 02:41:00,56.4,53.2,30.11,East,95,1.0,2.0,89,0.00,,OVC015,0.00,VWS V14.01,2013-04-30 06:41:00,
2013-04-30 02:46:00,56.4,53.2,30.11,East,98,0.0,2.0,89,0.00,,OVC015,0.00,VWS V14.01,2013-04-30 06:46:00,
2013-04-30 02:51:00,56.3,53.4,30.11,East,80,1.0,3.0,90,0.00,,OVC015,0.00,VWS V14.01,2013-04-30 06:51:00,
2013-04-30 02:56:00,56.3,53.4,30.11,ESE,113,0.0,3.0,90,0.00,,OVC015,0.00,VWS V14.01,2013-04-30 06:56:00,
2013-04-30 03:01:00,56.3,53.4,30.11,WSW,240,4.0,6.0,90,0.00,,OVC013,0.00,VWS V14.01,2013-04-30 07:01:00,
2013-04-30 03:06:00,56.2,53.3,30.11,ESE,108,0.0,6.0,90,0.00,,OVC013,0.00,VWS V14.01,2013-04-30 07:06:00,
2013-04-30 03:11:00,56.2,53.3,30.11,SW,232,1.0,6.0,90,0.00,,OVC013,0.00,VWS V14.01,2013-04-30 07:11:00,
2013-04-30 03:16:00,56.1,53.2,30.11,East,101,0.0,6.0,90,0.00,,OVC013,0.00,VWS V14.01,2013-04-30 07:16:00,
2013-04-30 03:21:00,56.0,53.4,30.12,East,84,0.0,7.0,91,0.00,,OVC013,0.00,VWS V14.01,2013-04-30 07:21:00,
2013-04-30 03:26:00,55.9,53.3,30.12,East,80,1.0,7.0,91,0.00,,OVC013,0.00,VWS V14.01,2013-04-30 07:26:00,
2013-04-30 03:31:00,55.9,53.3,30.12,SE,129,0.0,1.0,91,0.00,,OVC013,0.00,VWS V14.01,2013-04-30 07:31:00,
2013-04-30 03:36:00,55.7,53.4,30.12,SE,131,0.0,4.0,92,0.00,,OVC013,0.00,VWS V14.01,2013-04-30 07:36:00,
2013-04-30 03:41:00,55.5,53.2,30.12,East,100,0.0,4.0,92,0.00,,OVC013,0.00,VWS V14.01,2013-04-30 07:41:00,
2013-04-30 03:46:00,55.4,53.1,30.12,SE,129,0.0,4.0,92,0.00,,OVC013,0.00,VWS V14.01,2013-04-30 07:46:00,
2013-04-30 03:51:00,55.4,53.4,30.12,East,90,0.0,4.0,93,0.00,,OVC013,0.00,VWS V14.01,2013-04-30 07:51:00,
2013-04-30 03:56:00,55.4,53.4,30.12,East,86,3.0,4.0,93,0.00,,OVC013,0.00,VWS V14.01,2013-04-30 07:56:00,
2013-04-30 04:01:00,55.4,53.4,30.12,ESE,113,0.0,0.0,93,0.00,,,0.00,VWS V14.01,2013-04-30 08:01:00,
2013-04-30 04:06:00,55.5,53.5,30.13,East,86,6.0,6.0,93,0.00,,,0.00,VWS V14.01,2013-04-30 08:06:00,
2013-04-30 04:11:00,55.5,53.2,30.13,East,84,6.0,6.0,92,0.00,,,0.00,VWS V14.01,2013-04-30 08:11:00,
2013-04-30 04:16:00,55.5,53.2,30.13,SW,218,0.0,7.0,92,0.00,,,0.00,VWS V14.01,2013-04-30 08:16:00,
2013-04-30 04:21:00,55.4,53.1,30.13,East,101,1.0,7.0,92,0.00,,,0.00,VWS V14.01,2013-04-30 08:21:00,
2013-04-30 04:26:00,55.3,53.3,30.14,ESE,107,1.0,7.0,93,0.00,,,0.00,VWS V14.01,2013-04-30 08:26:00,
2013-04-30 04:31:00,55.2,53.2,30.14,East,97,1.0,3.0,93,0.00,,,0.00,VWS V14.01,2013-04-30 08:31:00,
2013-04-30 04:36:00,55.2,53.2,30.14,East,97,0.0,3.0,93,0.00,,,0.00,VWS V14.01,2013-04-30 08:36:00,
2013-04-30 04:41:00,55.2,53.2,30.14,East,91,1.0,4.0,93,0.00,,,0.00,VWS V14.01,2013-04-30 08:41:00,
2013-04-30 04:46:00,55.2,53.2,30.14,East,98,0.0,4.0,93,0.00,,,0.00,VWS V14.01,2013-04-30 08:46:00,
2013-04-30 04:51:00,55.2,53.2,30.14,ENE,77,0.0,4.0,93,0.00,,,0.00,VWS V14.01,2013-04-30 08:51:00,
2013-04-30 04:56:00,55.2,53.2,30.14,East,96,2.0,4.0,93,0.00,,,0.00,VWS V14.01,2013-04-30 08:56:00,
2013-04-30 05:01:00,55.3,53.3,30.14,ESE,108,0.0,0.0,93,0.00,,OVC013,0.00,VWS V14.01,2013-04-30 09:01:00,
2013-04-30 05:06:00,55.3,53.3,30.14,ESE,108,0.0,1.0,93,0.00,,OVC013,0.00,VWS V14.01,2013-04-30 09:06:00,
2013-04-30 05:11:00,55.3,53.3,30.14,East,83,0.0,1.0,93,0.00,,OVC013,0.00,VWS V14.01,2013-04-30 09:11:00,
2013-04-30 05:16:00,55.3,53.3,30.14,East,101,0.0,2.0,93,0.00,,OVC013,0.00,VWS V14.01,2013-04-30 09:16:00,
2013-04-30 05:21:00,55.4,53.1,30.14,ESE,102,0.0,2.0,92,0.00,,OVC013,0.00,VWS V14.01,2013-04-30 09:21:00,
2013-04-30 05:26:00,55.4,53.1,30.14,ESE,120,0.0,2.0,92,0.00,,OVC013,0.00,VWS V14.01,2013-04-30 09:26:00,
2013-04-30 05:31:00,55.4,53.1,30.14,ESE,110,0.0,0.0,92,0.00,,OVC013,0.00,VWS V14.01,2013-04-30 09:31:00,
2013-04-30 05:36:00,55.5,53.2,30.14,East,95,0.0,1.0,92,0.00,,OVC013,0.00,VWS V14.01,2013-04-30 09:36:00,
2013-04-30 05:41:00,55.5,53.2,30.15,East,80,0.0,2.0,92,0.00,,OVC013,0.00,VWS V14.01,2013-04-30 09:41:00,
2013-04-30 05:46:00,55.5,53.2,30.15,ENE,67,0.0,2.0,92,0.00,,OVC013,0.00,VWS V14.01,2013-04-30 09:46:00,
2013-04-30 05:51:00,55.5,53.2,30.15,East,83,0.0,2.0,92,0.00,,OVC013,0.00,VWS V14.01,2013-04-30 09:51:00,
2013-04-30 05:56:00,55.6,53.3,30.15,East,80,0.0,2.0,92,0.00,,OVC013,0.00,VWS V14.01,2013-04-30 09:56:00,
2013-04-30 06:01:00,55.6,53.3,30.15,ESE,105,0.0,0.0,92,0.00,,OVC036,0.00,VWS V14.01,2013-04-30 10:01:00,
2013-04-30 06:06:00,55.5,53.2,30.16,East,96,0.0,0.0,92,0.00,,OVC036,0.00,VWS V14.01,2013-04-30 10:06:00,
2013-04-30 06:11:00,55.5,53.2,30.16,East,80,0.0,0.0,92,0.00,,OVC036,0.00,VWS V14.01,2013-04-30 10:11:00,
2013-04-30 06:16:00,55.5,53.2,30.16,East,94,1.0,2.0,92,0.00,,OVC036,0.00,VWS V14.01,2013-04-30 10:16:00,
2013-04-30 06:21:00,55.5,53.2,30.16,East,82,2.0,4.0,92,0.00,,OVC036,0.00,VWS V14.01,2013-04-30 10:21:00,
2013-04-30 06:26:00,55.4,53.4,30.16,East,95,0.0,4.0,93,0.00,,OVC036,0.00,VWS V14.01,2013-04-30 10:26:00,
2013-04-30 06:31:00,55.3,53.3,30.16,ESE,111,3.0,3.0,93,0.00,,OVC036,0.00,VWS V14.01,2013-04-30 10:31:00,
2013-04-30 06:36:00,55.2,53.2,30.17,East,98,1.0,4.0,93,0.00,,OVC036,0.00,VWS V14.01,2013-04-30 10:36:00,
2013-04-30 06:41:00,55.2,53.2,30.16,ENE,66,1.0,4.0,93,0.00,,OVC036,0.00,VWS V14.01,2013-04-30 10:41:00,
2013-04-30 06:46:00,55.2,53.5,30.17,East,80,1.0,4.0,94,0.00,,OVC036,0.00,VWS V14.01,2013-04-30 10:46:00,
2013-04-30 06:51:00,55.2,53.5,30.17,ENE,68,2.0,5.0,94,0.00,,OVC036,0.00,VWS V14.01,2013-04-30 10:51:00,
2013-04-30 06:56:00,55.2,53.2,30.17,East,96,2.0,5.0,93,0.00,,OVC036,0.00,VWS V14.01,2013-04-30 10:56:00,
2013-04-30 07:01:00,55.2,53.2,30.17,ESE,110,0.0,0.0,93,0.00,,OVC013,0.00,VWS V14.01,2013-04-30 11:01:00,
2013-04-30 07:06:00,55.3,53.3,30.17,ENE,60,3.0,4.0,93,0.00,,OVC013,0.00,VWS V14.01,2013-04-30 11:06:00,
2013-04-30 07:11:00,55.3,53.3,30.17,East,89,3.0,5.0,93,0.00,,OVC013,0.00,VWS V14.01,2013-04-30 11:11:00,
2013-04-30 07:16:00,55.3,53.3,30.18,ESE,107,2.0,6.0,93,0.00,,OVC013,0.00,VWS V14.01,2013-04-30 11:16:00,
2013-04-30 07:21:00,55.3,53.3,30.18,East,100,0.0,6.0,93,0.00,,OVC013,0.00,VWS V14.01,2013-04-30 11:21:00,
2013-04-30 07:26:00,55.3,53.3,30.18,NE,56,0.0,6.0,93,0.00,,OVC013,0.00,VWS V14.01,2013-04-30 11:26:00,
2013-04-30 07:31:00,55.1,53.1,30.18,ESE,110,0.0,0.0,93,0.00,,,0.00,VWS V14.01,2013-04-30 11:31:00,
2013-04-30 07:36:00,55.1,53.4,30.18,ESE,120,0.0,2.0,94,0.00,,,0.00,VWS V14.01,2013-04-30 11:36:00,
2013-04-30 07:41:00,55.0,53.3,30.18,NW,307,0.0,2.0,94,0.00,,,0.00,VWS V14.01,2013-04-30 11:41:00,
2013-04-30 07:46:00,55.0,53.3,30.18,ESE,105,1.0,2.0,94,0.00,,,0.00,VWS V14.01,2013-04-30 11:46:00,
2013-04-30 07:51:00,55.0,53.3,30.18,ESE,110,1.0,5.0,94,0.00,,,0.00,VWS V14.01,2013-04-30 11:51:00,
2013-04-30 07:56:00,55.1,53.4,30.19,South,173,0.0,5.0,94,0.00,,,0.00,VWS V14.01,2013-04-30 11:56:00,
2013-04-30 08:01:00,55.2,53.5,30.19,ENE,60,0.0,0.0,94,0.00,,,0.00,VWS V14.01,2013-04-30 12:01:00,
2013-04-30 08:06:00,55.3,53.6,30.19,ENE,77,0.0,3.0,94,0.00,,,0.00,VWS V14.01,2013-04-30 12:06:00,
2013-04-30 08:11:00,55.2,53.5,30.19,ENE,72,3.0,3.0,94,0.00,,,0.00,VWS V14.01,2013-04-30 12:11:00,
2013-04-30 08:16:00,55.1,53.4,30.19,WSW,256,1.0,7.0,94,0.00,,,0.00,VWS V14.01,2013-04-30 12:16:00,
2013-04-30 08:21:00,55.1,53.4,30.20,ENE,77,4.0,7.0,94,0.00,,,0.00,VWS V14.01,2013-04-30 12:21:00,
2013-04-30 08:26:00,55.0,53.3,30.20,SSE,167,0.0,7.0,94,0.00,,,0.00,VWS V14.01,2013-04-30 12:26:00,
2013-04-30 08:31:00,55.0,53.3,30.20,East,90,3.0,4.0,94,0.00,,-RA,0.00,VWS V14.01,2013-04-30 12:31:00,
2013-04-30 08:36:00,55.0,53.3,30.20,ESE,113,2.0,5.0,94,0.00,,-RA,0.00,VWS V14.01,2013-04-30 12:36:00,
2013-04-30 08:41:00,55.1,53.4,30.20,East,81,2.0,5.0,94,0.00,,-RA,0.00,VWS V14.01,2013-04-30 12:41:00,
2013-04-30 08:46:00,55.1,53.4,30.20,ESE,105,0.0,5.0,94,0.00,,-RA,0.00,VWS V14.01,2013-04-30 12:46:00,
2013-04-30 08:51:00,55.2,53.5,30.20,ESE,105,2.0,5.0,94,0.00,,-RA,0.00,VWS V14.01,2013-04-30 12:51:00,
2013-04-30 08:56:00,55.2,53.2,30.20,ENE,75,3.0,5.0,93,0.00,,-RA,0.00,VWS V14.01,2013-04-30 12:56:00,
2013-04-30 09:01:00,55.2,53.2,30.20,East,90,2.0,3.0,93,0.00,,OVC013,0.00,VWS V14.01,2013-04-30 13:01:00,
2013-04-30 09:06:00,55.3,53.3,30.20,SSW,200,1.0,3.0,93,0.00,,OVC013,0.00,VWS V14.01,2013-04-30 13:06:00,
2013-04-30 09:11:00,55.3,53.3,30.20,SSW,212,0.0,3.0,93,0.00,,OVC013,0.00,VWS V14.01,2013-04-30 13:11:00,
2013-04-30 09:15:00,55.4,53.4,30.20,East,91,2.0,3.0,93,0.00,,OVC013,0.00,VWS V14.01,2013-04-30 13:15:00,
2013-04-30 09:20:00,55.5,53.5,30.21,East,91,2.0,4.0,93,0.00,,OVC013,0.00,VWS V14.01,2013-04-30 13:20:00,
2013-04-30 09:25:00,55.6,53.6,30.20,East,97,6.0,6.0,93,0.00,,OVC013,0.00,VWS V14.01,2013-04-30 13:25:00,
2013-04-30 09:30:00,55.7,53.4,30.20,ENE,65,0.0,0.0,92,0.00,,OVC013,0.00,VWS V14.01,2013-04-30 13:30:00,
2013-04-30 09:35:00,55.8,53.8,30.20,East,83,1.0,5.0,93,0.00,,OVC013,0.00,VWS V14.01,2013-04-30 13:35:00,
2013-04-30 09:40:00,55.9,53.9,30.20,SW,229,1.0,5.0,93,0.00,,OVC013,0.00,VWS V14.01,2013-04-30 13:40:00,
2013-04-30 09:45:00,56.1,53.8,30.20,SE,126,3.0,6.0,92,0.00,,OVC013,0.00,VWS V14.01,2013-04-30 13:45:00,
2013-04-30 09:50:00,56.1,53.5,30.21,East,95,1.0,6.0,91,0.00,,OVC013,0.00,VWS V14.01,2013-04-30 13:50:00,
2013-04-30 09:55:00,56.2,53.6,30.21,NE,39,1.0,6.0,91,0.00,,OVC013,0.00,VWS V14.01,2013-04-30 13:55:00,
2013-04-30 10:00:00,56.3,53.7,30.20,East,98,5.0,5.0,91,0.00,,OVC013,0.00,VWS V14.01,2013-04-30 14:00:00,
2013-04-30 10:05:00,56.5,53.6,30.20,SW,229,4.0,5.0,90,0.00,,OVC013,0.00,VWS V14.01,2013-04-30 14:05:00,
2013-04-30 10:10:00,56.6,53.7,30.21,ENE,76,0.0,5.0,90,0.00,,OVC013,0.00,VWS V14.01,2013-04-30 14:10:00,
2013-04-30 10:15:00,56.8,53.9,30.21,East,89,5.0,5.0,90,0.00,,OVC013,0.00,VWS V14.01,2013-04-30 14:15:00,
2013-04-30 10:20:00,56.7,53.5,30.21,SW,224,1.0,5.0,89,0.00,,OVC013,0.00,VWS V14.01,2013-04-30 14:20:00,
2013-04-30 10:25:00,56.7,53.5,30.21,SW,224,1.0,5.0,89,0.00,,OVC013,0.00,VWS V14.01,2013-04-30 14:25:00,
2013-04-30 10:30:00,56.8,53.6,30.21,ESE,105,0.0,0.0,89,0.00,,OVC015,0.00,VWS V14.01,2013-04-30 14:30:00,
2013-04-30 10:35:00,56.8,53.3,30.21,South,186,4.0,10.0,88,0.00,,OVC015,0.00,VWS V14.01,2013-04-30 14:35:00,
2013-04-30 10:40:00,57.0,53.8,30.21,South,176,0.0,10.0,89,0.00,,OVC015,0.00,VWS V14.01,2013-04-30 14:40:00,
2013-04-30 10:45:00,57.0,53.5,30.21,ENE,67,2.0,10.0,88,0.00,,OVC015,0.00,VWS V14.01,2013-04-30 14:45:00,
2013-04-30 10:50:00,57.2,53.7,30.21,East,82,2.0,10.0,88,0.00,,OVC015,0.00,VWS V14.01,2013-04-30 14:50:00,
2013-04-30 10:55:00,57.2,53.4,30.21,WSW,248,1.0,10.0,87,0.00,,OVC015,0.00,VWS V14.01,2013-04-30 14:55:00,
2013-04-30 11:00:00,57.3,53.5,30.22,ESE,113,0.0,0.0,87,0.00,,OVC021,0.00,VWS V14.01,2013-04-30 15:00:00,
2013-04-30 11:05:00,57.3,53.5,30.22,East,97,0.0,2.0,87,0.00,,OVC021,0.00,VWS V14.01,2013-04-30 15:05:00,
2013-04-30 11:10:00,57.5,53.7,30.22,East,100,1.0,3.0,87,0.00,,OVC021,0.00,VWS V14.01,2013-04-30 15:10:00,
2013-04-30 11:15:00,57.5,53.3,30.22,East,89,0.0,5.0,86,0.00,,OVC021,0.00,VWS V14.01,2013-04-30 15:15:00,
2013-04-30 11:20:00,57.6,53.5,30.22,SE,125,0.0,10.0,86,0.00,,OVC021,0.00,VWS V14.01,2013-04-30 15:20:00,
2013-04-30 11:25:00,57.5,53.3,30.22,ENE,68,2.0,10.0,86,0.00,,OVC021,0.00,VWS V14.01,2013-04-30 15:25:00,
2013-04-30 11:30:00,57.6,53.5,30.22,South,176,0.0,1.0,86,0.00,,OVC021,0.00,VWS V14.01,2013-04-30 15:30:00,
2013-04-30 11:35:00,57.8,53.7,30.22,SW,225,3.0,6.0,86,0.00,,OVC021,0.00,VWS V14.01,2013-04-30 15:35:00,
2013-04-30 11:40:00,58.0,53.5,30.22,SSE,155,0.0,6.0,85,0.00,,OVC021,0.00,VWS V14.01,2013-04-30 15:40:00,
2013-04-30 11:45:00,58.3,53.8,30.22,East,79,3.0,6.0,85,0.00,,OVC021,0.00,VWS V14.01,2013-04-30 15:45:00,
2013-04-30 11:50:00,58.7,53.9,30.22,SE,130,0.0,6.0,84,0.00,,OVC021,0.00,VWS V14.01,2013-04-30 15:50:00,
2013-04-30 11:55:00,59.4,53.9,30.22,NE,47,4.0,9.0,82,0.00,,OVC021,0.00,VWS V14.01,2013-04-30 15:55:00,
2013-04-30 12:00:00,59.8,54.3,30.22,SE,131,0.0,0.0,82,0.00,,OVC027,0.00,VWS V14.01,2013-04-30 16:00:00,
2013-04-30 12:05:00,60.1,53.9,30.22,ENE,58,0.0,3.0,80,0.00,,OVC027,0.00,VWS V14.01,2013-04-30 16:05:00,
2013-04-30 12:10:00,60.4,54.2,30.21,West,270,2.0,5.0,80,0.00,,OVC027,0.00,VWS V14.01,2013-04-30 16:10:00,
2013-04-30 12:15:00,60.4,53.9,30.21,SW,215,0.0,5.0,79,0.00,,OVC027,0.00,VWS V14.01,2013-04-30 16:15:00,
2013-04-30 12:20:00,60.5,53.6,30.21,SSW,212,2.0,6.0,78,0.00,,OVC027,0.00,VWS V14.01,2013-04-30 16:20:00,
2013-04-30 12:25:00,60.4,53.9,30.21,SSW,197,4.0,8.0,79,0.00,,OVC027,0.00,VWS V14.01,2013-04-30 16:25:00,
2013-04-30 12:30:00,60.8,54.6,30.21,SW,235,2.0,3.0,80,0.00,,OVC027,0.00,VWS V14.01,2013-04-30 16:30:00,
2013-04-30 12:35:00,61.4,54.5,30.21,SSW,212,3.0,9.0,78,0.00,,OVC027,0.00,VWS V14.01,2013-04-30 16:35:00,
2013-04-30 12:40:00,62.3,55.7,30.20,ESE,107,0.0,9.0,79,0.00,,OVC027,0.00,VWS V14.01,2013-04-30 16:40:00,
2013-04-30 12:45:00,62.6,54.6,30.21,ESE,123,3.0,9.0,75,0.00,,OVC027,0.00,VWS V14.01,2013-04-30 16:45:00,
2013-04-30 12:50:00,62.3,54.7,30.21,SW,225,1.0,9.0,76,0.00,,OVC027,0.00,VWS V14.01,2013-04-30 16:50:00,
2013-04-30 12:55:00,62.3,54.3,30.21,East,85,0.0,9.0,75,0.00,,OVC027,0.00,VWS V14.01,2013-04-30 16:55:00,
2013-04-30 13:00:00,62.4,54.0,30.21,SE,131,1.0,1.0,74,0.00,,OVC033,0.00,VWS V14.01,2013-04-30 17:00:00,
2013-04-30 13:05:00,62.6,54.2,30.21,East,96,2.0,4.0,74,0.00,,OVC033,0.00,VWS V14.01,2013-04-30 17:05:00,
2013-04-30 13:10:00,62.8,54.8,30.21,North,11,0.0,4.0,75,0.00,,OVC033,0.00,VWS V14.01,2013-04-30 17:10:00,
2013-04-30 13:15:00,63.3,54.5,30.21,NE,45,1.0,4.0,73,0.00,,OVC033,0.00,VWS V14.01,2013-04-30 17:15:00,
2013-04-30 13:20:00,63.4,55.0,30.21,SSW,195,1.0,4.0,74,0.00,,OVC033,0.00,VWS V14.01,2013-04-30 17:20:00,
2013-04-30 13:25:00,63.7,54.9,30.21,SSW,212,0.0,4.0,73,0.00,,OVC033,0.00,VWS V14.01,2013-04-30 17:25:00,
2013-04-30 13:30:00,64.1,54.9,30.21,South,186,0.0,0.0,72,0.00,,OVC033,0.00,VWS V14.01,2013-04-30 17:30:00,
2013-04-30 13:35:00,64.0,54.8,30.21,SSW,201,0.0,4.0,72,0.00,,OVC033,0.00,VWS V14.01,2013-04-30 17:35:00,
2013-04-30 13:40:00,64.1,54.9,30.21,SW,224,2.0,7.0,72,0.00,,OVC033,0.00,VWS V14.01,2013-04-30 17:40:00,
2013-04-30 13:45:00,64.1,54.5,30.21,SW,219,1.0,7.0,71,0.00,,OVC033,0.00,VWS V14.01,2013-04-30 17:45:00,
2013-04-30 13:50:00,64.3,55.1,30.21,SSW,201,0.0,7.0,72,0.00,,OVC033,0.00,VWS V14.01,2013-04-30 17:50:00,
2013-04-30 13:55:00,65.1,54.7,30.21,SE,124,3.0,7.0,69,0.00,,OVC033,0.00,VWS V14.01,2013-04-30 17:55:00,
2013-04-30 14:00:00,65.0,55.0,30.20,SW,224,2.0,7.0,70,0.00,,OVC030,0.00,VWS V14.01,2013-04-30 18:00:00,
2013-04-30 14:05:00,65.0,55.4,30.20,WSW,239,3.0,7.0,71,0.00,,OVC030,0.00,VWS V14.01,2013-04-30 18:05:00,
2013-04-30 14:10:00,65.6,55.6,30.20,SW,228,6.0,7.0,70,0.00,,OVC030,0.00,VWS V14.01,2013-04-30 18:10:00,
2013-04-30 14:15:00,65.2,54.8,30.21,ESE,102,3.0,7.0,69,0.00,,OVC030,0.00,VWS V14.01,2013-04-30 18:15:00,
2013-04-30 14:20:00,65.2,55.2,30.21,SW,231,1.0,7.0,70,0.00,,OVC030,0.00,VWS V14.01,2013-04-30 18:20:00,
2013-04-30 14:25:00,65.7,54.9,30.21,East,88,1.0,7.0,68,0.00,,OVC030,0.00,VWS V14.01,2013-04-30 18:25:00,
2013-04-30 14:30:00,65.9,55.0,30.21,SW,234,5.0,5.0,68,0.00,,OVC030,0.00,VWS V14.01,2013-04-30 18:30:00,
2013-04-30 14:35:00,65.8,54.5,30.21,SSW,210,1.0,9.0,67,0.00,,OVC030,0.00,VWS V14.01,2013-04-30 18:35:00,
2013-04-30 14:40:00,65.8,55.0,30.22,WSW,246,1.0,9.0,68,0.00,,OVC030,0.00,VWS V14.01,2013-04-30 18:40:00,
2013-04-30 14:45:00,66.2,55.3,30.22,ESE,108,1.0,9.0,68,0.00,,OVC030,0.00,VWS V14.01,2013-04-30 18:45:00,
2013-04-30 14:50:00,66.4,55.5,30.22,ESE,119,3.0,9.0,68,0.00,,OVC030,0.00,VWS V14.01,2013-04-30 18:50:00,
2013-04-30 14:55:00,66.1,54.8,30.22,SW,233,1.0,9.0,67,0.00,,OVC030,0.00,VWS V14.01,2013-04-30 18:55:00,
2013-04-30 15:00:00,66.2,54.9,30.22,SW,219,1.0,9.0,67,0.00,,OVC041,0.00,VWS V14.01,2013-04-30 19:00:00,
2013-04-30 15:05:00,66.2,54.5,30.22,SW,215,1.0,3.0,66,0.00,,OVC041,0.00,VWS V14.01,2013-04-30 19:05:00,
2013-04-30 15:10:00,66.6,55.3,30.22,ENE,74,0.0,3.0,67,0.00,,OVC041,0.00,VWS V14.01,2013-04-30 19:10:00,
2013-04-30 15:15:00,67.0,54.9,30.22,SW,215,3.0,5.0,65,0.00,,OVC041,0.00,VWS V14.01,2013-04-30 19:15:00,
2013-04-30 15:20:00,66.6,54.5,30.22,SW,232,1.0,5.0,65,0.00,,OVC041,0.00,VWS V14.01,2013-04-30 19:20:00,
2013-04-30 15:25:00,66.8,54.7,30.22,East,95,0.0,5.0,65,0.00,,OVC041,0.00,VWS V14.01,2013-04-30 19:25:00,
2013-04-30 15:30:00,67.1,54.5,30.22,WSW,250,1.0,5.0,64,0.00,,OVC041,0.00,VWS V14.01,2013-04-30 19:30:00,
2013-04-30 15:35:00,67.0,54.4,30.21,SW,231,4.0,4.0,64,0.00,,OVC041,0.00,VWS V14.01,2013-04-30 19:35:00,
2013-04-30 15:40:00,66.9,54.3,30.21,SSW,212,1.0,4.0,64,0.00,,OVC041,0.00,VWS V14.01,2013-04-30 19:40:00,
2013-04-30 15:45:00,66.9,54.3,30.21,SW,228,3.0,5.0,64,0.00,,OVC041,0.00,VWS V14.01,2013-04-30 19:45:00,
2013-04-30 15:50:00,66.8,54.2,30.21,SSW,211,3.0,6.0,64,0.00,,OVC041,0.00,VWS V14.01,2013-04-30 19:50:00,
2013-04-30 15:55:00,66.3,54.2,30.21,SW,215,4.0,6.0,65,0.00,,OVC041,0.00,VWS V14.01,2013-04-30 19:55:00,
2013-04-30 16:00:00,66.2,54.5,30.21,South,191,1.0,6.0,66,0.00,,OVC041,0.00,VWS V14.01,2013-04-30 20:00:00,
2013-04-30 16:05:00,66.4,54.3,30.21,SW,235,1.0,4.0,65,0.00,,OVC041,0.00,VWS V14.01,2013-04-30 20:05:00,
2013-04-30 16:10:00,66.3,54.2,30.21,SSW,208,3.0,4.0,65,0.00,,OVC041,0.00,VWS V14.01,2013-04-30 20:10:00,
2013-04-30 16:15:00,66.1,54.0,30.21,SSW,207,0.0,4.0,65,0.00,,OVC041,0.00,VWS V14.01,2013-04-30 20:15:00,
2013-04-30 16:20:00,66.4,54.3,30.21,SW,225,0.0,5.0,65,0.00,,OVC041,0.00,VWS V14.01,2013-04-30 20:20:00,
2013-04-30 16:25:00,66.9,54.8,30.21,SW,223,2.0,5.0,65,0.00,,OVC041,0.00,VWS V14.01,2013-04-30 20:25:00,
2013-04-30 16:30:00,67.0,54.9,30.21,East,87,1.0,5.0,65,0.00,,OVC041,0.00,VWS V14.01,2013-04-30 20:30:00,
2013-04-30 16:35:00,66.7,54.2,30.21,NNW,347,1.0,6.0,64,0.00,,OVC041,0.00,VWS V14.01,2013-04-30 20:35:00,
2013-04-30 16:40:00,66.6,54.5,30.21,ESE,122,1.0,6.0,65,0.00,,OVC041,0.00,VWS V14.01,2013-04-30 20:40:00,
2013-04-30 16:45:00,66.3,54.2,30.21,NE,56,1.0,6.0,65,0.00,,OVC041,0.00,VWS V14.01,2013-04-30 20:45:00,
2013-04-30 16:50:00,65.9,54.2,30.21,SSW,201,1.0,6.0,66,0.00,,OVC041,0.00,VWS V14.01,2013-04-30 20:50:00,
2013-04-30 16:55:00,65.7,54.5,30.21,SW,233,2.0,6.0,67,0.00,,OVC041,0.00,VWS V14.01,2013-04-30 20:55:00,
2013-04-30 17:00:00,65.8,55.0,30.21,SE,143,1.0,6.0,68,0.00,,OVC041,0.00,VWS V14.01,2013-04-30 21:00:00,
2013-04-30 17:05:00,65.9,54.7,30.21,SW,218,3.0,5.0,67,0.00,,OVC041,0.00,VWS V14.01,2013-04-30 21:05:00,
2013-04-30 17:10:00,65.7,54.5,30.21,SW,234,0.0,5.0,67,0.00,,OVC041,0.00,VWS V14.01,2013-04-30 21:10:00,
2013-04-30 17:15:00,65.5,54.3,30.22,West,266,0.0,5.0,67,0.00,,OVC041,0.00,VWS V14.01,2013-04-30 21:15:00,
2013-04-30 17:20:00,65.4,54.6,30.22,SW,231,0.0,5.0,68,0.00,,OVC041,0.00,VWS V14.01,2013-04-30 21:20:00,
2013-04-30 17:25:00,65.4,54.6,30.21,WSW,237,0.0,5.0,68,0.00,,OVC041,0.00,VWS V14.01,2013-04-30 21:25:00,
2013-04-30 17:30:00,65.2,54.0,30.21,ENE,70,3.0,5.0,67,0.00,,OVC041,0.00,VWS V14.01,2013-04-30 21:30:00,
2013-04-30 17:35:00,65.0,54.6,30.21,WSW,237,1.0,5.0,69,0.00,,OVC041,0.00,VWS V14.01,2013-04-30 21:35:00,
2013-04-30 17:40:00,65.1,54.3,30.21,SW,215,0.0,5.0,68,0.00,,OVC041,0.00,VWS V14.01,2013-04-30 21:40:00,
2013-04-30 17:45:00,65.2,54.8,30.21,East,88,0.0,5.0,69,0.00,,OVC041,0.00,VWS V14.01,2013-04-30 21:45:00,
2013-04-30 17:50:00,65.1,53.9,30.21,ESE,102,1.0,5.0,67,0.00,,OVC041,0.00,VWS V14.01,2013-04-30 21:50:00,
2013-04-30 17:55:00,65.1,53.9,30.21,East,80,0.0,5.0,67,0.00,,OVC041,0.00,VWS V14.01,2013-04-30 21:55:00,
2013-04-30 18:00:00,65.2,54.4,30.21,SW,235,0.0,5.0,68,0.00,,OVC060,0.00,VWS V14.01,2013-04-30 22:00:00,
2013-04-30 18:05:00,65.3,54.1,30.21,SE,145,0.0,2.0,67,0.00,,OVC060,0.00,VWS V14.01,2013-04-30 22:05:00,
2013-04-30 18:10:00,65.4,54.2,30.21,SSW,212,0.0,4.0,67,0.00,,OVC060,0.00,VWS V14.01,2013-04-30 22:10:00,
2013-04-30 18:15:00,65.4,53.8,30.21,SW,233,0.0,4.0,66,0.00,,OVC060,0.00,VWS V14.01,2013-04-30 22:15:00,
2013-04-30 18:20:00,65.2,53.6,30.21,East,92,0.0,4.0,66,0.00,,OVC060,0.00,VWS V14.01,2013-04-30 22:20:00,
2013-04-30 18:25:00,65.5,53.8,30.21,SW,224,0.0,4.0,66,0.00,,OVC060,0.00,VWS V14.01,2013-04-30 22:25:00,
2013-04-30 18:30:00,65.4,53.8,30.21,SW,232,0.0,4.0,66,0.00,,OVC060,0.00,VWS V14.01,2013-04-30 22:30:00,
2013-04-30 18:35:00,65.3,53.7,30.21,West,274,0.0,0.0,66,0.00,,OVC060,0.00,VWS V14.01,2013-04-30 22:35:00,
2013-04-30 18:40:00,65.4,53.8,30.20,SW,236,0.0,0.0,66,0.00,,OVC060,0.00,VWS V14.01,2013-04-30 22:40:00,
2013-04-30 18:45:00,65.2,53.6,30.20,SW,222,0.0,0.0,66,0.00,,OVC060,0.00,VWS V14.01,2013-04-30 22:45:00,
2013-04-30 18:50:00,65.1,53.5,30.20,SW,221,0.0,0.0,66,0.00,,OVC060,0.00,VWS V14.01,2013-04-30 22:50:00,
2013-04-30 18:55:00,65.4,53.8,30.20,SW,222,0.0,0.0,66,0.00,,OVC060,0.00,VWS V14.01,2013-04-30 22:55:00,
2013-04-30 19:00:00,65.7,53.6,30.20,SW,222,0.0,0.0,65,0.00,,OVC060,0.00,VWS V14.01,2013-04-30 23:00:00,
2013-04-30 19:05:00,65.8,53.3,30.20,SE,125,0.0,0.0,64,0.00,,OVC060,0.00,VWS V14.01,2013-04-30 23:05:00,
2013-04-30 19:10:00,65.5,53.0,30.19,ESE,110,0.0,0.0,64,0.00,,OVC060,0.00,VWS V14.01,2013-04-30 23:10:00,
2013-04-30 19:15:00,65.1,53.1,30.19,ESE,105,0.0,0.0,65,0.00,,OVC060,0.00,VWS V14.01,2013-04-30 23:15:00,
2013-04-30 19:20:00,64.7,53.1,30.20,ESE,105,0.0,0.0,66,0.00,,OVC060,0.00,VWS V14.01,2013-04-30 23:20:00,
2013-04-30 19:25:00,64.4,53.2,30.20,ESE,104,0.0,0.0,67,0.00,,OVC060,0.00,VWS V14.01,2013-04-30 23:25:00,
2013-04-30 19:30:00,64.1,53.3,30.20,ESE,105,0.0,0.0,68,0.00,,OVC060,0.00,VWS V14.01,2013-04-30 23:30:00,
2013-04-30 19:35:00,63.9,53.5,30.20,ESE,104,0.0,0.0,69,0.00,,OVC060,0.00,VWS V14.01,2013-04-30 23:35:00,
2013-04-30 19:40:00,63.6,53.3,30.20,ESE,105,0.0,0.0,69,0.00,,OVC060,0.00,VWS V14.01,2013-04-30 23:40:00,
2013-04-30 19:45:00,63.3,53.4,30.20,SW,218,0.0,0.0,70,0.00,,OVC060,0.00,VWS V14.01,2013-04-30 23:45:00,
2013-04-30 19:50:00,62.9,53.4,30.19,SW,218,0.0,0.0,71,0.00,,OVC060,0.00,VWS V14.01,2013-04-30 23:50:00,
2013-04-30 19:55:00,62.6,53.5,30.20,SW,218,0.0,0.0,72,0.00,,OVC060,0.00,VWS V14.01,2013-04-30 23:55:00,
2013-04-30 20:00:00,62.2,53.5,30.20,SW,218,0.0,0.0,73,0.00,,CLR,0.00,VWS V14.01,2013-05-01 00:00:00,
2013-04-30 20:05:00,61.8,53.1,30.20,SE,135,0.0,0.0,73,0.00,,CLR,0.00,VWS V14.01,2013-05-01 00:05:00,
2013-04-30 20:10:00,61.5,53.2,30.20,SE,136,0.0,0.0,74,0.00,,CLR,0.00,VWS V14.01,2013-05-01 00:10:00,
2013-04-30 20:15:00,61.2,53.2,30.19,ESE,123,0.0,0.0,75,0.00,,CLR,0.00,VWS V14.01,2013-05-01 00:15:00,
2013-04-30 20:20:00,60.7,53.1,30.20,ESE,123,0.0,0.0,76,0.00,,CLR,0.00,VWS V14.01,2013-05-01 00:20:00,
2013-04-30 20:25:00,60.4,53.5,30.20,ESE,123,0.0,0.0,78,0.00,,CLR,0.00,VWS V14.01,2013-05-01 00:25:00,
2013-04-30 20:30:00,60.1,53.6,30.20,ESE,123,0.0,0.0,79,0.00,,CLR,0.00,VWS V14.01,2013-05-01 00:30:00,
2013-04-30 20:35:00,59.9,53.4,30.20,ESE,122,0.0,0.0,79,0.00,,CLR,0.00,VWS V14.01,2013-05-01 00:35:00,
2013-04-30 20:40:00,59.6,53.4,30.20,ESE,122,0.0,0.0,80,0.00,,CLR,0.00,VWS V14.01,2013-05-01 00:40:00,
2013-04-30 20:45:00,59.3,53.5,30.20,ESE,122,0.0,0.0,81,0.00,,CLR,0.00,VWS V14.01,2013-05-01 00:45:00,
2013-04-30 20:50:00,58.8,53.3,30.20,ESE,122,0.0,0.0,82,0.00,,CLR,0.00,VWS V14.01,2013-05-01 00:50:00,
2013-04-30 20:55:00,58.3,53.2,30.20,East,95,2.0,2.0,83,0.00,,CLR,0.00,VWS V14.01,2013-05-01 00:55:00,
2013-04-30 21:00:00,57.8,53.0,30.20,ENE,70,0.0,3.0,84,0.00,,CLR,0.00,VWS V14.01,2013-05-01 01:00:00,
2013-04-30 21:05:00,57.5,53.0,30.21,ENE,70,0.0,0.0,85,0.00,,FEW050,0.00,VWS V14.01,2013-05-01 01:05:00,
2013-04-30 21:10:00,57.3,52.8,30.21,NNE,13,0.0,2.0,85,0.00,,FEW050,0.00,VWS V14.01,2013-05-01 01:10:00,
2013-04-30 21:15:00,57.1,52.6,30.21,NNE,13,0.0,2.0,85,0.00,,FEW050,0.00,VWS V14.01,2013-05-01 01:15:00,
2013-04-30 21:20:00,56.8,52.7,30.21,NNE,32,1.0,2.0,86,0.00,,FEW050,0.00,VWS V14.01,2013-05-01 01:20:00,
2013-04-30 21:25:00,56.6,52.5,30.22,NE,51,2.0,2.0,86,0.00,,FEW050,0.00,VWS V14.01,2013-05-01 01:25:00,
2013-04-30 21:30:00,56.4,52.6,30.22,North,358,1.0,5.0,87,0.00,,FEW050,0.00,VWS V14.01,2013-05-01 01:30:00,
2013-04-30 21:35:00,56.1,52.3,30.22,North,350,1.0,2.0,87,0.00,,FEW050,0.00,VWS V14.01,2013-05-01 01:35:00,
2013-04-30 21:40:00,55.8,52.0,30.23,North,349,0.0,2.0,87,0.00,,FEW050,0.00,VWS V14.01,2013-05-01 01:40:00,
2013-04-30 21:45:00,55.6,52.1,30.23,North,360,0.0,2.0,88,0.00,,FEW050,0.00,VWS V14.01,2013-05-01 01:45:00,
2013-04-30 21:50:00,55.3,51.8,30.23,North,359,0.0,2.0,88,0.00,,FEW050,0.00,VWS V14.01,2013-05-01 01:50:00,
2013-04-30 21:55:00,54.9,51.7,30.23,North,360,0.0,2.0,89,0.00,,FEW050,0.00,VWS V14.01,2013-05-01 01:55:00,
2013-04-30 22:00:00,54.6,51.4,30.23,ESE,105,0.0,2.0,89,0.00,,FEW050,0.00,VWS V14.01,2013-05-01 02:00:00,
2013-04-30 22:05:00,54.4,51.5,30.23,ESE,103,0.0,0.0,90,0.00,,FEW055,0.00,VWS V14.01,2013-05-01 02:05:00,
2013-04-30 22:10:00,54.4,51.8,30.23,East,90,1.0,4.0,91,0.00,,FEW055,0.00,VWS V14.01,2013-05-01 02:10:00,
2013-04-30 22:15:00,54.5,51.9,30.23,NNE,32,0.0,4.0,91,0.00,,FEW055,0.00,VWS V14.01,2013-05-01 02:15:00,
2013-04-30 22:20:00,54.3,51.4,30.23,East,101,0.0,4.0,90,0.00,,FEW055,0.00,VWS V14.01,2013-05-01 02:20:00,
2013-04-30 22:25:00,54.0,51.4,30.23,NE,39,0.0,4.0,91,0.00,,FEW055,0.00,VWS V14.01,2013-05-01 02:25:00,
2013-04-30 22:30:00,53.9,51.3,30.24,NNE,14,0.0,4.0,91,0.00,,FEW055,0.00,VWS V14.01,2013-05-01 02:30:00,
2013-04-30 22:35:00,53.8,51.2,30.24,NE,53,1.0,3.0,91,0.00,,FEW055,0.00,VWS V14.01,2013-05-01 02:35:00,
2013-04-30 22:40:00,53.7,51.1,30.24,NE,39,2.0,4.0,91,0.00,,FEW055,0.00,VWS V14.01,2013-05-01 02:40:00,
2013-04-30 22:45:00,53.6,51.3,30.24,East,80,1.0,4.0,92,0.00,,FEW055,0.00,VWS V14.01,2013-05-01 02:45:00,
2013-04-30 22:50:00,53.5,51.2,30.24,South,189,0.0,4.0,92,0.00,,FEW055,0.00,VWS V14.01,2013-05-01 02:50:00,
2013-04-30 22:54:00,53.3,51.0,30.24,North,8,0.0,4.0,92,0.00,,FEW055,0.00,VWS V14.01,2013-05-01 02:54:00,
2013-04-30 22:59:00,53.2,50.9,30.25,SW,224,1.0,4.0,92,0.00,,FEW055,0.00,VWS V14.01,2013-05-01 02:59:00,
2013-04-30 23:04:00,53.2,50.9,30.25,East,96,0.0,3.0,92,0.00,,CLR,0.00,VWS V14.01,2013-05-01 03:04:00,
2013-04-30 23:09:00,53.3,50.7,30.25,SE,129,0.0,6.0,91,0.00,,CLR,0.00,VWS V14.01,2013-05-01 03:09:00,
2013-04-30 23:15:00,53.1,50.5,30.25,SE,128,0.0,6.0,91,0.00,,CLR,0.00,VWS V14.01,2013-05-01 03:15:00,
2013-04-30 23:20:00,53.0,50.5,30.26,NE,39,0.0,6.0,91,0.00,,CLR,0.00,VWS V14.01,2013-05-01 03:20:00,
2013-04-30 23:24:00,52.9,50.3,30.26,SE,128,0.0,6.0,91,0.00,,CLR,0.00,VWS V14.01,2013-05-01 03:24:00,
2013-04-30 23:29:00,52.7,49.8,30.26,SE,128,0.0,6.0,90,0.00,,CLR,0.00,VWS V14.01,2013-05-01 03:29:00,
2013-04-30 23:34:00,52.5,50.0,30.26,NE,52,1.0,1.0,91,0.00,,CLR,0.00,VWS V14.01,2013-05-01 03:34:00,
2013-04-30 23:39:00,52.6,49.8,30.26,North,353,1.0,3.0,90,0.00,,CLR,0.00,VWS V14.01,2013-05-01 03:39:00,
2013-04-30 23:44:00,52.6,49.8,30.27,North,352,0.0,3.0,90,0.00,,CLR,0.00,VWS V14.01,2013-05-01 03:44:00,
2013-04-30 23:49:00,52.8,49.7,30.27,ESE,108,0.0,4.0,89,0.00,,CLR,0.00,VWS V14.01,2013-05-01 03:49:00,
2013-04-30 23:54:00,53.0,49.5,30.27,ENE,58,0.0,4.0,88,0.00,,CLR,0.00,VWS V14.01,2013-05-01 03:54:00,
2013-04-30 23:59:00,53.2,48.2,30.27,East,97,2.0,4.0,83,0.00,,CLR,0.00,VWS V14.01,2013-05-01 03:59:00,